Beverly, MA

8:49 AM EDT on October 22, 2017 (GMT -0400)
Beverly Municipal

Weather History for KBVY - December, 2013

Change the Weather History Date:

Friday, December 6, 2013

  Actual Average Record
Temperature  
Mean Temperature 44 °F -  
Max Temperature 55 °F 40 °F 71 °F (2001)
Min Temperature 33 °F 25 °F 16 °F (2007)
Degree Days  
Heating Degree Days 21    
Moisture  
Dew Point 44 °F    
Average Humidity 86    
Maximum Humidity 97    
Minimum Humidity 61    
Precipitation  
Precipitation 0.38 in - - ()
Sea Level Pressure  
Sea Level Pressure 29.96 in    
Wind  
Wind Speed 7 mph (WNW)    
Max Wind Speed 14 mph    
Max Gust Speed -    
Visibility 7 miles    
Events Rain , Snow    
Averages and records for this station are not official NWS values.
T = Trace of Precipitation, MM = Missing Value Source: NWS Daily Summary

Daily Weather History Graph

Daily Weather History Graph

Search for Another Location

Airport or City:

Trip Planner

Search our weather history database for the weather conditions in past years. The results will help you decide how hot, cold, wet, or windy it might be!

Date:

Astronomy

Dec. 06, 2013 Rise Set
Actual Time 6:59 AM EST 4:10 PM EST
Civil Twilight 6:27 AM EST 4:42 PM EST
Nautical Twilight 5:52 AM EST 5:17 PM EST
Astronomical Twilight 5:17 AM EST 5:51 PM EST
Moon 9:59 AM EST (12/6) 8:42 PM EST (12/6)
Length of Visible Light 10h 14m
Length of Day
9h 11m
Waxing Crescent, 19% of the Moon is Illuminated
Dec 6
Waxing Crescent
Dec 9
First Quarter
Dec 17
Full
Dec 25
Last Quarter
Jan 1
New

Hourly Weather History & Observations

Time (EST) Temp. Windchill Dew Point Humidity Pressure Visibility Wind Dir Wind Speed Gust Speed Precip Events Conditions
12:09 AM 52.0 °F - 51.1 °F 97% 29.91 in 4.0 mi SSW 5.8 mph - N/A   Overcast
12:53 AM 54.0 °F - 52.0 °F 93% 29.87 in 4.0 mi South 8.1 mph - N/A   Overcast
1:53 AM 55.0 °F - 53.1 °F 93% 29.87 in 7.0 mi SSW 10.4 mph - N/A   Overcast
2:36 AM 55.9 °F - 53.1 °F 90% 29.90 in 7.0 mi SW 6.9 mph - N/A   Overcast
2:53 AM 55.9 °F - 53.1 °F 90% 29.86 in 7.0 mi South 6.9 mph - N/A   Overcast
3:16 AM 55.9 °F - 53.1 °F 90% 29.85 in 7.0 mi South 6.9 mph - N/A   Overcast
3:31 AM 55.9 °F - 53.1 °F 90% 29.87 in 7.0 mi SSW 8.1 mph - N/A   Overcast
3:45 AM 55.9 °F - 53.1 °F 90% 29.86 in 7.0 mi SSW 4.6 mph - N/A   Overcast
3:53 AM 55.9 °F - 53.1 °F 90% 29.86 in 7.0 mi SSW 5.8 mph - N/A   Overcast
4:53 AM 55.0 °F - 53.1 °F 93% 29.85 in 6.0 mi SSW 3.5 mph - N/A   Overcast
5:53 AM 55.0 °F - 53.1 °F 93% 29.86 in 5.0 mi SSW 3.5 mph - N/A   Overcast
6:33 AM 55.0 °F - 53.1 °F 93% 29.88 in 2.0 mi Calm Calm - 0.00 in Rain Light Rain
6:40 AM 55.0 °F - 53.1 °F 93% 29.89 in 1.2 mi Calm Calm - 0.00 in Rain Light Rain
6:53 AM 55.0 °F - 53.1 °F 93% 29.88 in 1.0 mi Calm Calm - 0.01 in Rain Light Rain
7:53 AM 52.0 °F - 48.9 °F 89% 29.89 in 10.0 mi NNW 9.2 mph - 0.02 in   Overcast
8:53 AM 50.0 °F - 46.9 °F 89% 29.94 in 10.0 mi WNW 10.4 mph - N/A   Overcast
9:53 AM 50.0 °F - 46.9 °F 89% 29.96 in 8.0 mi NW 10.4 mph - 0.00 in Rain Light Rain
10:00 AM 50.0 °F - 46.0 °F 86% 29.97 in 10.0 mi NW 11.5 mph - 0.00 in   Overcast
10:53 AM 48.9 °F - 46.0 °F 90% 29.95 in 10.0 mi NW 11.5 mph - 0.01 in Rain Light Rain
11:53 AM 48.0 °F - 44.1 °F 86% 29.94 in 10.0 mi NW 8.1 mph - 0.00 in   Overcast
12:18 PM 48.0 °F - 44.1 °F 86% 29.96 in 10.0 mi NW 9.2 mph - N/A   Overcast
12:29 PM 48.0 °F - 43.0 °F 83% 29.96 in 10.0 mi NW 9.2 mph - N/A   Overcast
12:36 PM 48.0 °F - 43.0 °F 83% 29.97 in 10.0 mi WNW 9.2 mph - N/A   Overcast
12:53 PM 48.0 °F - 43.0 °F 83% 29.95 in 10.0 mi NW 8.1 mph - N/A   Overcast
1:48 PM 46.4 °F 44.3 °F 42.8 °F 87% 29.95 in 10.0 mi WNW 4.6 mph - 0.00 in   Overcast
1:53 PM 46.9 °F - 43.0 °F 86% 29.95 in 10.0 mi WNW 8.1 mph - 0.00 in   Overcast
2:16 PM 46.9 °F - 42.1 °F 83% 29.96 in 10.0 mi West 3.5 mph - N/A   Overcast
2:53 PM 46.9 °F - 41.0 °F 80% 29.95 in 10.0 mi WNW 6.9 mph - N/A   Overcast
3:53 PM 46.9 °F - 37.9 °F 71% 29.99 in 10.0 mi WNW 5.8 mph - N/A   Overcast
4:53 PM 46.0 °F 41.4 °F 33.1 °F 61% 30.02 in 10.0 mi NW 9.2 mph - N/A   Overcast
5:53 PM 45.0 °F 41.2 °F 33.1 °F 63% 30.01 in 10.0 mi NW 6.9 mph - 0.00 in Rain Light Rain
6:53 PM 43.0 °F 36.8 °F 32.0 °F 65% 30.04 in 10.0 mi NW 11.5 mph - 0.02 in Rain Light Rain
7:53 PM 39.9 °F 34.5 °F 34.0 °F 79% 30.06 in 10.0 mi NW 8.1 mph - 0.04 in Rain Light Rain
8:53 PM 39.0 °F 36.8 °F 35.1 °F 86% 30.06 in 7.0 mi NW 3.5 mph - 0.03 in Rain Light Rain
9:53 PM 37.0 °F 28.5 °F 34.0 °F 89% 30.11 in 5.0 mi NW 13.8 mph - 0.08 in Rain Rain
10:53 PM 35.1 °F 28.6 °F 32.0 °F 89% 30.07 in 10.0 mi NNW 8.1 mph - 0.08 in Rain Light Rain
11:34 PM 34.0 °F 27.2 °F 30.9 °F 89% 30.12 in 2.5 mi NW 8.1 mph - 0.05 in Snow Light Snow
11:38 PM 33.1 °F 26.9 °F 30.9 °F 92% 30.11 in 1.8 mi NW 6.9 mph - 0.06 in Snow Light Snow
11:53 PM 33.1 °F 26.1 °F 30.9 °F 92% 30.10 in 1.5 mi NNW 8.1 mph - 0.09 in Snow Light Snow
11:58 PM 33.1 °F 26.9 °F 30.9 °F 92% 30.10 in 3.0 mi NW 6.9 mph - 0.01 in Snow Light Snow